contact:dominique.lefevre@mio.osupytheas.fr, maurice.libes@osupytheas.fr
Project:EMSO Ligure-ouest http://www.emso-fr.org/EMSO-France
Sensor Aquadopp, line 04 Serial AQD8517 
DOI : "https://doi.org/10.17882/74513; https://doi.org/10.17882/83244" 
Title:EMSO Ligure Ouest : Data ligne ALBATROSS capteur AQUADOPP - deploiement 2021
Id,Date,Profondeur,Latitude,Longitude,X_East,Y_North,Z_Up,Amplitude_X,Amplitude_Y,Amplitude_Z,Batterie,SoundSpeed,Heading,Pitch,Roll,Pressure,Temperature,Speed,Direction
, , m, degrees North, degrees East, m.s-1, m.s-1,m.s-1, 1, 1, 1, Volt, m.s-1, degree, degree, degree, dbar, degree_C, m.s-1, degree
04,2021-11-05T21:30:00,1000.0,42.79,6.0312,0.003,0.01,-0.002,60.0,61.0,59.0,12.7,1504.6,102.0,-0.4,-0.3,967.784,13.26,0.01,16.7
04,2021-11-05T22:00:00,1000.0,42.79,6.0312,0.008,0.006,-0.011,58.0,59.0,63.0,12.7,1504.6,105.6,-0.4,-0.3,967.823,13.27,0.01,53.1
04,2021-11-05T22:30:00,1000.0,42.79,6.0312,-0.007,0.018,0.002,58.0,60.0,56.0,12.8,1504.6,100.2,-0.4,-0.4,967.786,13.27,0.019,338.8
04,2021-11-05T23:00:00,1000.0,42.79,6.0312,0.012,0.007,0.0,59.0,61.0,58.0,12.7,1504.6,94.8,-0.4,-0.3,967.751,13.27,0.013,59.7
04,2021-11-05T23:30:00,1000.0,42.79,6.0312,0.015,0.005,0.005,59.0,62.0,58.0,12.7,1504.6,90.7,-0.4,-0.3,967.727,13.27,0.015,71.6
04,2021-11-06T00:00:00,1000.0,42.79,6.0312,0.006,0.006,-0.002,59.0,60.0,58.0,12.7,1504.6,86.8,-0.4,-0.3,967.667,13.27,0.008,45.0
04,2021-11-06T00:30:00,1000.0,42.79,6.0312,0.004,0.007,0.021,57.0,61.0,57.0,12.8,1504.6,85.3,-0.4,-0.3,967.692,13.26,0.008,29.7
04,2021-11-06T01:00:00,1000.0,42.79,6.0312,0.021,0.015,0.004,60.0,62.0,57.0,12.8,1504.6,84.2,-0.4,-0.4,967.682,13.25,0.025,54.5
04,2021-11-06T01:30:00,1000.0,42.79,6.0312,0.013,0.008,0.002,59.0,60.0,57.0,12.7,1504.6,83.7,-0.4,-0.3,967.657,13.25,0.015,58.4
04,2021-11-06T02:00:00,1000.0,42.79,6.0312,0.009,0.015,0.001,60.0,60.0,58.0,12.8,1504.6,86.5,-0.4,-0.4,967.625,13.25,0.017,31.0
04,2021-11-06T02:30:00,1000.0,42.79,6.0312,0.011,0.002,0.011,60.0,62.0,59.0,12.8,1504.5,90.5,-0.4,-0.3,967.641,13.24,0.011,79.7
04,2021-11-06T03:00:00,1000.0,42.79,6.0312,0.01,0.007,0.011,60.0,64.0,58.0,12.7,1504.6,87.4,-0.4,-0.3,967.609,13.25,0.012,55.0
04,2021-11-06T03:30:00,1000.0,42.79,6.0312,0.006,0.019,0.001,59.0,61.0,59.0,12.7,1504.6,87.2,-0.4,-0.4,967.643,13.25,0.019,17.5
04,2021-11-06T04:00:00,1000.0,42.79,6.0312,0.021,0.008,0.005,59.0,63.0,58.0,12.8,1504.6,86.1,-0.4,-0.3,967.679,13.25,0.022,69.1
04,2021-11-06T04:30:00,1000.0,42.79,6.0312,0.018,0.018,0.003,59.0,61.0,57.0,12.7,1504.6,85.9,-0.4,-0.3,967.701,13.25,0.025,45.0
04,2021-11-06T05:00:00,1000.0,42.79,6.0312,0.015,0.004,-0.008,60.0,62.0,59.0,12.8,1504.6,88.3,-0.4,-0.3,967.773,13.25,0.015,75.1
04,2021-11-06T05:30:00,1000.0,42.79,6.0312,0.019,0.019,-0.003,60.0,61.0,58.0,12.8,1504.6,89.1,-0.4,-0.4,967.789,13.25,0.026,45.0
04,2021-11-06T06:00:00,1000.0,42.79,6.0312,0.025,0.025,0.001,59.0,61.0,59.0,12.8,1504.6,89.8,-0.4,-0.4,967.795,13.25,0.035,45.0
04,2021-11-06T06:30:00,1000.0,42.79,6.0312,0.024,0.023,0.002,58.0,61.0,59.0,12.7,1504.6,89.8,-0.4,-0.4,967.887,13.25,0.033,46.2
04,2021-11-06T07:00:00,1000.0,42.79,6.0312,0.027,0.021,-0.002,58.0,62.0,59.0,12.7,1504.6,93.6,-0.4,-0.4,967.875,13.25,0.034,52.1
04,2021-11-06T07:30:00,1000.0,42.79,6.0312,0.016,0.01,-0.009,59.0,62.0,59.0,12.7,1504.6,97.5,-0.4,-0.4,967.897,13.25,0.018,58.0
04,2021-11-06T08:00:00,1000.0,42.79,6.0312,0.028,0.0,0.0,58.0,62.0,57.0,12.7,1504.6,99.8,-0.4,-0.4,967.909,13.26,0.028,90.0
04,2021-11-06T08:30:00,1000.0,42.79,6.0312,0.015,0.014,0.014,59.0,62.0,58.0,12.8,1504.6,98.3,-0.4,-0.4,967.879,13.25,0.02,47.0
04,2021-11-06T09:00:00,1000.0,42.79,6.0312,0.023,0.003,0.013,59.0,63.0,57.0,12.8,1504.6,99.6,-0.4,-0.3,967.922,13.25,0.023,82.6
04,2021-11-06T09:30:00,1000.0,42.79,6.0312,0.011,0.0,0.004,59.0,59.0,58.0,12.7,1504.6,102.4,-0.4,-0.3,967.888,13.25,0.011,90.0
04,2021-11-06T10:30:00,1000.0,42.79,6.0312,0.012,0.019,-0.001,60.0,61.0,57.0,12.7,1504.6,101.7,-0.4,-0.3,967.844,13.25,0.022,32.3
04,2021-11-06T11:00:00,1000.0,42.79,6.0312,0.015,0.002,0.0,58.0,62.0,57.0,12.8,1504.6,101.9,-0.4,-0.4,967.843,13.26,0.015,82.4
04,2021-11-06T11:30:00,1000.0,42.79,6.0312,0.015,0.006,-0.002,58.0,60.0,56.0,12.7,1504.6,104.9,-0.4,-0.4,967.784,13.26,0.016,68.2
04,2021-11-06T12:00:00,1000.0,42.79,6.0312,0.012,0.014,0.004,56.0,62.0,58.0,12.7,1504.6,107.8,-0.4,-0.4,967.78,13.25,0.018,40.6
04,2021-11-06T12:30:00,1000.0,42.79,6.0312,0.017,0.008,-0.004,59.0,61.0,56.0,12.8,1504.5,105.1,-0.4,-0.3,967.758,13.24,0.018,64.8
04,2021-11-06T13:00:00,1000.0,42.79,6.0312,0.011,0.01,0.002,57.0,59.0,57.0,12.8,1504.5,100.5,-0.4,-0.3,967.741,13.24,0.014,47.7
04,2021-11-06T13:30:00,1000.0,42.79,6.0312,0.026,0.017,-0.01,57.0,60.0,57.0,12.7,1504.5,103.1,-0.4,-0.4,967.723,13.24,0.031,56.8
04,2021-11-06T14:00:00,1000.0,42.79,6.0312,0.02,0.002,0.01,58.0,59.0,57.0,12.8,1504.6,110.8,-0.4,-0.3,967.717,13.25,0.02,84.3
04,2021-11-06T14:30:00,1000.0,42.79,6.0312,0.03,0.008,-0.005,56.0,59.0,56.0,12.8,1504.6,114.0,-0.4,-0.3,967.692,13.25,0.031,75.1
04,2021-11-06T15:00:00,1000.0,42.79,6.0312,0.031,0.008,-0.002,56.0,58.0,56.0,12.7,1504.6,117.2,-0.4,-0.4,967.66,13.25,0.032,75.5
04,2021-11-06T15:30:00,1000.0,42.79,6.0312,0.028,0.002,0.005,56.0,58.0,55.0,12.7,1504.6,119.2,-0.4,-0.4,967.713,13.25,0.028,85.9
04,2021-11-06T16:00:00,1000.0,42.79,6.0312,0.034,-0.009,-0.005,57.0,59.0,55.0,12.7,1504.6,126.0,-0.4,-0.4,967.703,13.26,0.035,104.8
04,2021-11-06T16:30:00,1000.0,42.79,6.0312,0.017,-0.001,0.002,59.0,61.0,56.0,12.7,1504.6,128.5,-0.4,-0.4,967.696,13.26,0.017,93.4
04,2021-11-06T17:00:00,1000.0,42.79,6.0312,0.024,0.011,-0.005,57.0,59.0,55.0,12.7,1504.6,138.8,-0.4,-0.4,967.779,13.26,0.026,65.4
04,2021-11-06T17:30:00,1000.0,42.79,6.0312,0.023,-0.002,0.0,56.0,58.0,56.0,12.8,1504.6,139.8,-0.4,-0.4,967.743,13.26,0.023,95.0
04,2021-11-06T18:00:00,1000.0,42.79,6.0312,0.027,-0.011,-0.001,54.0,56.0,55.0,12.7,1504.6,120.3,-0.4,-0.3,967.818,13.26,0.029,112.2
04,2021-11-06T18:30:00,1000.0,42.79,6.0312,0.022,0.001,-0.004,54.0,57.0,53.0,12.7,1504.6,100.9,-0.4,-0.3,967.804,13.26,0.022,87.4
04,2021-11-06T19:00:00,1000.0,42.79,6.0312,0.019,-0.007,0.01,57.0,57.0,54.0,12.7,1504.6,99.6,-0.4,-0.3,967.874,13.26,0.02,110.2
04,2021-11-06T19:30:00,1000.0,42.79,6.0312,0.028,-0.007,0.0,56.0,58.0,55.0,12.7,1504.6,95.0,-0.4,-0.3,967.874,13.26,0.028,104.0
04,2021-11-06T20:00:00,1000.0,42.79,6.0312,0.016,0.0,0.0,57.0,57.0,54.0,12.7,1504.6,90.8,-0.4,-0.3,967.879,13.27,0.016,90.0
04,2021-11-06T20:30:00,1000.0,42.79,6.0312,0.017,0.002,-0.001,57.0,59.0,55.0,12.7,1504.6,88.5,-0.4,-0.3,967.875,13.27,0.017,83.3
04,2021-11-06T21:00:00,1000.0,42.79,6.0312,0.025,0.006,0.001,57.0,57.0,54.0,12.7,1504.6,88.3,-0.4,-0.3,967.848,13.27,0.025,76.5
